Data for 01/22/2018

Time Sea-Level Adjusted Pressure Absolute Pressure Temperature Relative Humidity Dew Point   
(mb) (inHg) (mb) (inHg) (C) (F) (%) (C) (F)
00:05 1019 30.09 848 25.04 -7.8 18 71 -12.1 10.2
00:10 1019 30.09 848 25.04 -8.2 17.2 74 -12 10.3
00:15 1019 30.09 848 25.04 -7.8 18 70 -12.3 9.8
00:20 1019 30.09 848 25.04 -7.6 18.3 70 -12.2 10.1
00:25 1019 30.09 848 25.04 -7.5 18.5 71 -11.9 10.5
00:30 1019 30.09 848 25.04 -7.6 18.3 71 -12 10.3
00:35 1019 30.09 848 25.04 -7.4 18.6 70 -12 10.4
00:40 1019 30.09 848 25.04 -7.7 18.2 72 -11.9 10.6
00:45 1019 30.09 848 25.04 -8.1 17.4 73 -12.1 10.2
00:50 1019 30.09 848 25.04 -8.4 16.8 74 -12.3 9.8
00:55 1019 30.09 848 25.04 -8.8 16.1 74 -12.7 9.2
01:00 1019 30.09 848 25.04 -8.9 16 74 -12.7 9.2
01:05 1019 30.09 848 25.04 -8.8 16.2 74 -12.6 9.3
01:10 1019 30.09 848 25.04 -8.9 15.9 74 -12.7 9.1
01:15 1019 30.09 848 25.04 -9 15.8 75 -12.7 9.2
01:20 1019 30.09 848 25.04 -9.1 15.5 74 -12.9 8.8
01:25 1019 30.09 848 25.04 -8.6 16.4 73 -12.7 9.1
01:30 1019 30.09 848 25.04 -8.6 16.6 72 -12.8 9
01:35 1019 30.09 848 25.04 -8.6 16.4 72 -12.7 9.1
01:40 1019 30.09 848 25.04 -8.6 16.6 72 -12.7 9.2
01:45 1019 30.09 848 25.04 -8.8 16.2 72 -12.9 8.8
01:50 1019 30.09 848 25.04 -9 15.8 73 -13.1 8.5
01:55 1019 30.09 848 25.04 -9.4 15.1 74 -13.3 8.1
02:00 1019 30.09 848 25.04 -9.5 14.9 74 -13.3 8
02:05 1019 30.09 848 25.04 -9.6 14.7 76 -13.1 8.5
02:10 1019 30.09 848 25.04 -9 15.7 74 -12.9 8.8
02:15 1019 30.09 848 25.04 -8.8 16.1 74 -12.7 9.1
02:20 1019 30.09 848 25.04 -8.7 16.4 72 -12.9 8.8
02:25 1019 30.09 848 25.04 -8.5 16.8 72 -12.7 9.1
02:30 1019 30.09 848 25.04 -8.3 17 71 -12.7 9.2
02:35 1019 30.09 848 25.04 -8 17.7 70 -12.5 9.4
02:40 1019 30.09 848 25.04 -7.8 18 69 -12.5 9.5
02:45 1019 30.09 848 25.04 -7.7 18.2 68 -12.5 9.5
02:50 1019 30.09 848 25.04 -7.6 18.2 68 -12.5 9.5
02:55 1019 30.09 848 25.04 -7.7 18.1 68 -12.6 9.3
03:00 1019 30.09 848 25.04 -7.7 18.1 68 -12.6 9.3
03:05 1019 30.09 848 25.04 -7.7 18.2 68 -12.7 9.2
03:10 1019 30.09 848 25.04 -7.8 17.9 69 -12.6 9.3
03:15 1019 30.09 848 25.04 -8.1 17.3 70 -12.8 9
03:20 1019 30.09 848 25.04 -8.2 17.2 70 -12.8 8.9
03:25 1019 30.09 848 25.04 -8.1 17.3 69 -12.8 8.9
03:30 1019 30.09 848 25.04 -8 17.6 69 -12.7 9.2
03:35 1019 30.09 848 25.04 -8.1 17.4 69 -12.8 8.9
03:40 1019 30.09 848 25.04 -8 17.7 70 -12.6 9.4
03:45 1019 30.09 848 25.04 -7.1 19.1 64 -12.9 8.8
03:50 1019 30.09 848 25.04 -6.4 20.5 62 -12.5 9.4
03:55 1019 30.09 848 25.04 -6.6 20.1 64 -12.4 9.7
04:00 1019 30.09 848 25.04 -7.1 19.3 65 -12.6 9.3
04:05 1019 30.09 848 25.04 -6.9 19.6 64 -12.6 9.4
04:10 1019 30.09 848 25.04 -7.2 19 66 -12.5 9.5
04:15 1019 30.09 848 25.04 -7.4 18.6 68 -12.4 9.7
04:20 1019 30.09 848 25.04 -7.9 17.8 70 -12.5 9.5
04:25 1019 30.09 848 25.04 -8 17.6 70 -12.6 9.4
04:30 1019 30.09 848 25.04 -8 17.7 70 -12.4 9.6
04:35 1019 30.09 848 25.04 -7.7 18.1 70 -12.3 9.9
04:40 1019 30.09 848 25.04 -7.7 18.2 70 -12.2 10
04:45 1019 30.09 848 25.04 -7.4 18.6 69 -12.2 10.1
04:50 1019 30.09 848 25.04 -7.4 18.7 70 -12 10.3
04:55 1019 30.09 848 25.04 -7.6 18.4 71 -12 10.4
05:00 1019 30.09 848 25.04 -7.8 18 70 -12.4 9.7
05:05 1019 30.09 848 25.04 -7.9 17.8 71 -12.2 10
05:10 1019 30.09 848 25.04 -7.6 18.3 68 -12.5 9.4
05:15 1019 30.09 848 25.04 -7.2 19 69 -12 10.3
05:20 1019 30.09 848 25.04 -7.4 18.7 69 -12.1 10.2
05:25 1019 30.09 848 25.04 -7.5 18.5 69 -12.3 9.8
05:30 1019 30.09 848 25.04 -7.7 18.2 70 -12.3 9.9
05:35 1019 30.09 848 25.04 -7.7 18.1 71 -12.2 10
05:40 1019 30.09 848 25.04 -7.8 18 71 -12.2 10.1
05:45 1019 30.09 848 25.04 -7.7 18.2 71 -12.1 10.3
05:50 1019 30.09 848 25.04 -7.6 18.4 70 -12.1 10.3
05:55 1019 30.09 848 25.04 -7.2 19.1 69 -12 10.5
06:00 1019 30.09 848 25.04 -6.7 20 66 -12 10.4
06:05 1019 30.09 848 25.04 -6.1 21.1 63 -12 10.4
06:10 1019 30.09 848 25.04 -5.9 21.4 64 -11.6 11
06:15 1019 30.09 848 25.04 -5.8 21.6 63 -11.7 11
06:20 1019 30.09 848 25.04 -5.9 21.4 65 -11.5 11.4
06:25 1019 30.09 848 25.04 -5.9 21.3 65 -11.5 11.3
06:30 1019 30.09 848 25.04 -5.9 21.3 66 -11.3 11.6
06:35 1019 30.09 848 25.04 -6.2 20.8 67 -11.3 11.6
06:40 1019 30.09 848 25.04 -6.5 20.3 69 -11.4 11.5
06:45 1019 30.09 848 25.04 -6.7 19.9 70 -11.4 11.5
06:50 1019 30.09 848 25.04 -6.6 20.1 69 -11.4 11.4
06:55 1019 30.09 848 25.04 -6.5 20.3 67 -11.6 11.2
07:00 1019 30.09 848 25.04 -6.5 20.4 68 -11.4 11.5
07:05 1019 30.09 848 25.04 -6.4 20.6 69 -11.2 11.8
07:10 1019 30.09 848 25.04 -6.2 20.8 69 -11 12.2
07:15 1019 30.09 848 25.04 -6.1 21 69 -10.8 12.5
07:20 1019 30.09 848 25.04 -6.1 21.1 69 -10.8 12.5
07:25 1019 30.09 848 25.04 -5.9 21.4 69 -10.7 12.7
07:30 1019 30.09 848 25.04 -5.8 21.5 69 -10.7 12.7
07:35 1019 30.09 848 25.04 -5.8 21.6 69 -10.6 12.9
07:40 1019 30.09 848 25.04 -5.7 21.8 68 -10.6 12.9
07:45 1019 30.09 848 25.04 -5.5 22.1 68 -10.5 13.1
07:50 1019 30.09 849 25.07 -5.4 22.2 68 -10.4 13.2
07:55 1019 30.09 849 25.07 -5.3 22.5 67 -10.5 13.1
08:00 1019 30.09 849 25.07 -5.3 22.4 70 -9.9 14.1
08:05 1019 30.09 849 25.07 -5.7 21.7 72 -10 13.9
08:10 1020 30.12 849 25.07 -5.7 21.7 72 -10 14
08:15 1020 30.12 849 25.07 -5.7 21.8 71 -10.1 13.8
08:20 1020 30.12 849 25.07 -5.5 22.1 70 -10.2 13.6
08:25 1020 30.12 849 25.07 -5.3 22.4 70 -10 13.9
08:30 1020 30.12 849 25.07 -5.2 22.6 69 -10.1 13.9
08:35 1020 30.12 849 25.07 -5 23 67 -10.2 13.6
08:40 1020 30.12 849 25.07 -4.6 23.7 65 -10.2 13.6
08:45 1020 30.12 849 25.07 -4.3 24.2 65 -9.9 14.1
08:50 1020 30.12 849 25.07 -4.4 24 69 -9.4 15.1
08:55 1020 30.12 849 25.07 -4.7 23.6 70 -9.3 15.3
09:00 1020 30.12 849 25.07 -5 23 71 -9.4 15
09:05 1020 30.12 849 25.07 -5.1 22.9 72 -9.3 15.3
09:10 1020 30.12 849 25.07 -4.9 23.2 71 -9.4 15.1
09:15 1020 30.12 849 25.07 -4.6 23.8 69 -9.4 15
09:20 1020 30.12 849 25.07 -4.5 23.9 70 -9.2 15.5
09:25 1020 30.12 849 25.07 -4.5 23.9 72 -8.8 16.2
09:30 1020 30.12 849 25.07 -4.4 24.1 73 -8.6 16.6
09:35 1020 30.12 849 25.07 -4.2 24.5 73 -8.3 17.1
09:40 1020 30.12 849 25.07 -4.1 24.6 74 -8.1 17.4
09:45 1020 30.12 849 25.07 -4 24.8 75 -7.9 17.8
09:50 1020 30.12 849 25.07 -3.8 25.1 74 -7.7 18.1
09:55 1020 30.12 849 25.07 -3.7 25.4 74 -7.7 18.1
10:00 1020 30.12 849 25.07 -3.5 25.7 73 -7.6 18.3
10:05 1020 30.12 850 25.1 -3.3 26.1 73 -7.5 18.5
10:10 1020 30.12 850 25.1 -3.1 26.5 73 -7.3 18.9
10:15 1020 30.12 850 25.1 -2.7 27.1 72 -7.1 19.2
10:20 1020 30.12 850 25.1 -2.7 27.1 73 -6.9 19.5
10:25 1020 30.12 850 25.1 -2.7 27.2 74 -6.7 19.9
10:30 1020 30.12 850 25.1 -2.3 27.9 71 -6.8 19.8
10:35 1020 30.12 850 25.1 -2 28.3 71 -6.6 20.1
10:40 1020 30.12 850 25.1 -2.2 28.1 73 -6.4 20.4
10:45 1020 30.12 850 25.1 -2.4 27.6 74 -6.5 20.3
10:50 1020 30.12 850 25.1 -2.5 27.6 74 -6.5 20.3
10:55 1020 30.12 850 25.1 -2.6 27.4 74 -6.5 20.3
11:00 1020 30.12 850 25.1 -2.3 27.8 73 -6.5 20.3
11:05 1020 30.12 849 25.07 -2.1 28.1 73 -6.4 20.4
11:10 1020 30.12 849 25.07 -1.9 28.7 71 -6.5 20.4